EW4183 Weather Reports


time (UTC)temp
C
wind
direction
speed
KPH
gust
KPH
rain 1hr
cm
rain 24hr
cm
rain mn
cm
humidity
%
barometer
mb
20260504151040 16 93 0.0 3.2 0.00 0.00 0.00 48 1000.4
20260504150807 16 92 1.6 4.8 0.00 0.00 0.00 52 1000.4
20260504150309 16 93 0.0 4.8 0.00 0.00 0.00 52 1000.4
20260504141032 16 93 0.0 3.2 0.00 0.00 0.00 45 1000.6
20260504140532 15 92 0.0 3.2 0.00 0.00 0.00 46 1000.5
20260504140303 15 92 0.0 1.6 0.00 0.00 0.00 47 1000.5
20260504130532 12 93 0.0 1.6 0.00 0.00 0.00 60 1000.8
20260504130303 12 93 0.0 3.2 0.00 0.00 0.00 60 1000.9
20260504110614 -17 0.0 0.0 0.00 0.00 0.00 1001.5
20260504110105 -17 0.0 0.0 0.00 0.00 0.00 1001.4
20260504100208 -17 0.0 0.0 0.00 0.00 0.00 1001.3
20260504081838 8 93 0.0 0.0 0.00 0.00 0.00 70 1001.7
20260504081102 8 93 0.0 0.0 0.00 0.00 0.00 70 1001.6
20260504080827 8 92 0.0 0.0 0.00 0.00 0.00 71 1001.6
20260504050252 6 93 0.0 0.0 0.00 0.00 0.00 73 1002.2
20260504050022 6 93 0.0 0.0 0.00 0.00 0.00 73 1002.1
20260504045252 6 93 0.0 0.0 0.00 0.00 0.00 73 1002.1
20260504044752 6 93 0.0 0.0 0.00 0.00 0.00 73 1002.1
20260504044250 6 93 0.0 0.0 0.00 0.00 0.00 73 1002.2
20260504043750 6 93 0.0 0.0 0.00 0.00 0.00 72 1002.1
20260504043248 6 93 0.0 0.0 0.00 0.00 0.00 72 1002.1
20260504042748 6 93 0.0 0.0 0.00 0.00 0.00 71 1002.1
20260504042247 6 93 0.0 0.0 0.00 0.00 0.00 71 1002.0
20260504041746 6 93 0.0 0.0 0.00 0.00 0.00 71 1002.0
20260504041245 6 93 0.0 0.0 0.00 0.00 0.00 70 1002.0
20260504040740 6 93 0.0 0.0 0.00 0.00 0.00 70 1002.0
20260504040234 6 93 0.0 0.0 0.00 0.00 0.00 70 1002.0
20260504035733 6 92 0.0 0.0 0.00 0.00 0.00 69 1002.0
20260504035234 6 93 0.0 0.0 0.00 0.00 0.00 68 1002.0
20260504034734 6 93 0.0 0.0 0.00 0.00 0.00 68 1002.1
20260504034231 6 93 0.0 0.0 0.00 0.00 0.00 68 1002.1
20260504034006 6 93 0.0 0.0 0.00 0.00 0.00 68 1002.1
20260504033230 6 93 0.0 0.0 0.00 0.00 0.00 68 1002.1
20260504032958 6 93 0.0 0.0 0.00 0.00 0.00 67 1002.1
20260504032227 6 93 0.0 0.0 0.00 0.00 0.00 67 1002.0
20260504031726 6 93 0.0 0.0 0.00 0.00 0.00 67 1002.0
20260504031223 7 93 0.0 0.0 0.00 0.00 0.00 67 1001.9
20260504030723 7 93 0.0 0.0 0.00 0.00 0.00 67 1001.9
20260504030222 7 93 0.0 0.0 0.00 0.00 0.00 67 1001.9
20260504025722 7 93 0.0 0.0 0.00 0.00 0.00 67 1001.9
20260504025222 7 93 0.0 0.0 0.00 0.00 0.00 67 1001.8
20260504024722 7 93 0.0 0.0 0.00 0.00 0.00 67 1001.8
20260504024450 7 93 0.0 0.0 0.00 0.00 0.00 66 1001.7
20260504023720 7 93 0.0 0.0 0.00 0.00 0.00 66 1001.7
20260504023220 7 93 0.0 0.0 0.00 0.00 0.00 65 1001.6
20260504022948 7 93 0.0 0.0 0.00 0.00 0.00 64 1001.6
20260504022217 7 93 0.0 0.0 0.00 0.00 0.00 63 1001.6
20260504021718 8 93 0.0 0.0 0.00 0.00 0.00 62 1001.6
20260504021217 8 93 0.0 0.0 0.00 0.00 0.00 62 1001.6
20260504020949 8 93 0.0 0.0 0.00 0.00 0.00 61 1001.5
20260504020444 8 93 0.0 0.0 0.00 0.00 0.00 61 1001.4
20260504015714 8 93 0.0 0.0 0.00 0.00 0.00 59 1001.4
20260504015214 8 93 0.0 0.0 0.00 0.00 0.00 58 1001.3
20260504014713 8 93 0.0 0.0 0.00 0.00 0.00 57 1001.3
20260504014214 9 93 0.0 0.0 0.00 0.00 0.00 57 1001.3
20260504013713 9 93 0.0 0.0 0.00 0.00 0.00 56 1001.3
20260504013213 9 93 0.0 0.0 0.00 0.00 0.00 56 1001.3
20260504012713 10 92 0.0 0.0 0.00 0.00 0.00 54 1001.1
20260504012214 10 93 0.0 0.0 0.00 0.00 0.00 54 1001.1
20260504011710 10 93 0.0 0.0 0.00 0.00 0.00 53 1001.1
20260504011209 10 92 0.0 0.0 0.00 0.00 0.00 52 1001.1
20260504010443 11 93 0.0 0.0 0.00 0.00 0.00 49 1001.0
20260504005209 11 93 0.0 0.0 0.00 0.00 0.00 47 1001.1
20260504004709 11 92 0.0 0.0 0.00 0.00 0.00 46 1001.0
20260504004209 12 92 0.0 0.0 0.00 0.00 0.00 46 1000.9
20260504003710 12 93 0.0 0.0 0.00 0.00 0.00 45 1000.9
20260504003208 12 93 0.0 0.0 0.00 0.00 0.00 44 1000.9
20260504002707 12 92 0.0 0.0 0.00 0.00 0.00 42 1000.8
20260504002207 13 93 0.0 0.0 0.00 0.00 0.00 40 1000.8
20260504001937 13 93 0.0 0.0 0.00 0.00 0.00 39 1000.8
20260504001208 13 92 0.0 0.0 0.00 0.00 0.00 38 1000.8
20260504000703 13 92 0.0 0.0 0.00 0.00 0.00 37 1000.8
20260504000201 14 92 0.0 0.0 0.00 0.00 0.00 37 1000.7
20260503235932 14 93 0.0 0.0 0.00 0.00 0.00 35 1000.6
20260503235202 15 93 0.0 0.0 0.00 0.00 0.00 35 1000.7
20260503234659 15 93 0.0 0.0 0.00 0.00 0.00 35 1000.6
20260503234200 15 93 0.0 1.6 0.00 0.00 0.00 34 1000.6
20260503233655 15 93 0.0 3.2 0.00 0.00 0.00 34 1000.5
20260503233155 15 93 0.0 3.2 0.00 0.00 0.00 33 1000.5
20260503232653 15 93 0.0 1.6 0.00 0.00 0.00 33 1000.5
20260503232155 16 93 0.0 0.0 0.00 0.00 0.00 32 1000.4
20260503231649 16 93 0.0 1.6 0.00 0.00 0.00 32 1000.4
20260503231143 16 93 0.0 1.6 0.00 0.00 0.00 33 1000.3
20260503230907 16 92 0.0 1.6 0.00 0.00 0.00 32 1000.2
20260503230131 16 93 0.0 1.6 0.00 0.00 0.00 32 1000.2
20260503225625 16 93 0.0 1.6 0.00 0.00 0.00 31 1000.1
20260503225118 16 93 0.0 1.6 0.00 0.00 0.00 31 1000.2
20260503224617 16 93 0.0 1.6 0.00 0.00 0.00 31 1000.2
20260503224117 16 93 0.0 3.2 0.00 0.00 0.00 32 1000.3
20260503223848 16 92 0.0 3.2 0.00 0.00 0.00 31 1000.3
20260503223117 16 92 1.6 4.8 0.00 0.00 0.00 31 1000.3
20260503222617 16 93 1.6 4.8 0.00 0.00 0.00 31 1000.4
20260503222347 16 93 0.0 4.8 0.00 0.00 0.00 32 1000.3
20260503221617 16 92 0.0 1.6 0.00 0.00 0.00 32 1000.3
20260503221348 16 93 0.0 1.6 0.00 0.00 0.00 31 1000.3
20260503220615 16 92 0.0 3.2 0.00 0.00 0.00 34 1000.4
20260503220113 16 93 0.0 3.2 0.00 0.00 0.00 32 1000.3
20260503215611 16 92 0.0 4.8 0.00 0.00 0.00 31 1000.3
20260503215111 16 93 1.6 6.4 0.00 0.00 0.00 31 1000.3
20260503214609 16 91 1.6 6.4 0.00 0.00 0.00 30 1000.4
20260503214109 16 91 1.6 4.8 0.00 0.00 0.00 31 1000.4
20260503213609 16 91 1.6 6.4 0.00 0.00 0.00 31 1000.4
20260503213102 16 91 1.6 6.4 0.00 0.00 0.00 31 1000.5
20260503212556 16 92 1.6 4.8 0.00 0.00 0.00 32 1000.6
20260503212051 16 91 1.6 8.0 0.00 0.00 0.00 32 1000.6
20260503211815 16 91 1.6 14.5 0.00 0.00 0.00 31 1000.6
20260503211038 16 91 0.0 14.5 0.00 0.00 0.00 31 1000.6
20260503210533 16 91 0.0 3.2 0.00 0.00 0.00 32 1000.4
20260503210026 16 91 0.0 4.8 0.00 0.00 0.00 31 1000.4
20260503205520 16 91 1.6 8.0 0.00 0.00 0.00 33 1000.6
20260503205015 16 91 1.6 12.9 0.00 0.00 0.00 32 1000.6
20260503204509 16 91 1.6 12.9 0.00 0.00 0.00 31 1000.8
20260503204003 16 91 1.6 6.4 0.00 0.00 0.00 32 1000.8
20260503203727 16 91 1.6 6.4 0.00 0.00 0.00 32 1000.8
20260503202950 16 91 1.6 9.7 0.00 0.00 0.00 33 1000.8
20260503202445 16 91 1.6 9.7 0.00 0.00 0.00 33 1000.8
20260503201939 16 91 1.6 8.0 0.00 0.00 0.00 34 1000.9
20260503201704 15 91 1.6 6.4 0.00 0.00 0.00 33 1000.8
20260503200926 15 91 1.6 6.4 0.00 0.00 0.00 33 1000.9
20260503200421 15 92 1.6 12.9 0.00 0.00 0.00 32 1001.0
20260503195915 15 89 1.6 12.9 0.00 0.00 0.00 33 1001.1
20260503195409 15 88 1.6 11.3 0.00 0.00 0.00 36 1001.2
20260503194902 15 88 1.6 6.4 0.00 0.00 0.00 36 1001.3
20260503194357 15 88 1.6 6.4 0.00 0.00 0.00 36 1001.5
20260503193850 15 88 1.6 6.4 0.00 0.00 0.00 37 1001.6
20260503193345 15 88 1.6 6.4 0.00 0.00 0.00 39 1001.5
20260503192838 15 88 1.6 8.0 0.00 0.00 0.00 38 1001.7
20260503192332 14 88 1.6 8.0 0.00 0.00 0.00 36 1001.8
20260503191826 14 88 1.6 8.0 0.00 0.00 0.00 39 1001.9
20260503191321 14 88 1.6 8.0 0.00 0.00 0.00 41 1001.9
20260503190815 13 88 1.6 11.3 0.00 0.00 0.00 39 1002.1
20260503190308 14 88 1.6 9.7 0.00 0.00 0.00 40 1002.1
20260503185803 14 88 1.6 9.7 0.00 0.00 0.00 39 1002.1
20260503185528 13 88 1.6 6.4 0.00 0.00 0.00 40 1002.2
20260503184751 13 88 1.6 6.4 0.00 0.00 0.00 42 1002.1
20260503184245 13 88 0.0 4.8 0.00 0.00 0.00 42 1002.3
20260503184010 13 88 1.6 6.4 0.00 0.00 0.00 44 1002.3
20260503183503 13 88 1.6 8.0 0.00 0.00 0.00 45 1002.4
20260503182726 12 88 1.6 6.4 0.00 0.00 0.00 44 1002.4
20260503182220 12 88 1.6 8.0 0.00 0.00 0.00 47 1002.5
20260503181714 11 88 1.6 8.0 0.00 0.00 0.00 49 1002.5
20260503181209 10 88 0.0 3.2 0.00 0.00 0.00 56 1002.4
20260503180702 10 88 0.0 4.8 0.00 0.00 0.00 55 1002.5
20260503180156 10 88 1.6 6.4 0.00 0.00 0.00 64 1002.5
20260503175652 10 88 1.6 12.9 0.00 0.00 0.00 53 1002.6
20260503175144 10 88 1.6 16.1 0.00 0.00 0.00 60 1002.6
20260503174144 10 88 1.6 8.0 0.00 0.00 0.00 57 1002.8
20260503173643 10 88 1.6 8.0 0.00 0.00 0.00 58 1002.9
20260503173143 10 88 1.6 6.4 0.00 0.00 0.00 55 1002.9
20260503172640 10 88 0.0 6.4 0.00 0.00 0.00 58 1002.9
20260503171643 10 88 1.6 9.7 0.00 0.00 0.00 56 1003.0
20260503171139 10 88 1.6 9.7 0.00 0.00 0.00 58 1003.0
20260503170639 11 88 0.0 3.2 0.00 0.00 0.00 53 1003.1
20260503170139 11 88 0.0 3.2 0.00 0.00 0.00 52 1003.0
20260503160126 12 88 1.6 6.4 0.00 0.00 0.00 42 1003.7